Regional Weather Roundup
Issued by NWS Cleveland, OH

Home | Current Version | Previous Version | Graphics & Text | Print | Product List | Glossary On
Versions: 1 2 3 4 5 6 7 8 9 10 11 12 13 14 15 16 17 18 19 20 21 22 23 24 25 26 27 28 29 30 31 32 33 34 35 36 37 38 39 40 41 42 43 44 45 46 47 48 49 50
000
ASUS41 KCLE 050510
RWRCLE
OHIO REGIONAL WEATHER ROUNDUP
NATIONAL WEATHER SERVICE CLEVELAND, OH
100 AM EDT SUN JUL 05 2015

NOTE: "FAIR" INDICATES FEW OR NO CLOUDS BELOW 12,000 FEET WITH NO
SIGNIFICANT WEATHER AND/OR OBSTRUCTIONS TO VISIBILITY.

OHZ001>008-015>018-024>027-034-035-043-044-050600-
   NORTHWEST OHIO

CITY           SKY/WX    TMP DP  RH WIND       PRES   REMARKS
DEFIANCE       CLEAR     63  60  90 CALM      30.07R
FINDLAY        CLEAR     65  57  75 SE6       30.07R
TOLEDO EXPRESS CLEAR     61  56  83 CALM      30.07R
TOLEDO EXEC    CLEAR     65  53  65 CALM      30.08R
LIMA           PTCLDY    61  58  90 E3        30.08R
$$

OHZ009>014-019>023-028>033-038-089-050600-
   NORTHEAST OHIO

CITY           SKY/WX    TMP DP  RH WIND       PRES   REMARKS
CLE-HOPKINS    CLEAR     60  54  80 S7        30.10R
CLE-LAKEFRONT  CLEAR     66  51  58 S7        30.07R HAZE
CUY CO. ARPT   NOT AVBL
LORAIN-ELYRIA  CLEAR     57  54  89 SW5       30.09R
ASHTABULA      CLEAR     57  55  93 CALM      30.09S FOG
AKRON-CANTON   CLEAR     61  51  70 CALM      30.10R
WOOSTER        CLEAR     57  55  93 CALM      30.10R FOG
MANSFIELD      CLEAR     61  57  87 S3        30.10R
YOUNGSTOWN     CLEAR     54  51  90 CALM      30.10R
$$

OHZ042-051>053-060>062-070>072-077>081-050600-
  SOUTHWEST OHIO

CITY           SKY/WX    TMP DP  RH WIND       PRES   REMARKS
CINC-COVINGTON CLOUDY    71  60  68 E5        30.06S
CINC-LUNKEN    CLOUDY    64  62  93 CALM      30.06S FOG
HAMILTON       CLOUDY    63  61  93 CALM      30.07R FOG
DAYTON         MOCLDY    67  60  78 E3        30.08S
WRIGHT-PAT AFB MOCLDY    64  62  90 CALM      30.07R
DAYTON GENERAL CLOUDY    68  57  68 E5        30.07R
WILMINGTON     CLOUDY    64  58  80 CALM      30.08R
$$

OHZ036-037-039>041-045>050-054>059-063>069-073>076-082>088-050600-
  CENTRAL AND SOUTHEAST OHIO

CITY           SKY/WX    TMP DP  RH WIND       PRES   REMARKS
COLUMBUS       CLOUDY    63  58  83 CALM      30.07R
OSU AIRPORT    MOCLDY    62  56  80 N3        30.08R
BOLTON FIELD   MOCLDY    60  59  97 CALM      30.08S FOG
RICKENBACK AFB MOCLDY    62  59  91 CALM      30.07R
NEWARK         MOCLDY    59  57  93 CALM      30.08R FOG
MARION         CLEAR     63  59  87 E3        30.09R
LANCASTER      MOCLDY    59  57  93 CALM      30.08R FOG
ZANESVILLE     NOT AVBL
NEW PHILLY     CLEAR     59  57  93 CALM      30.10R
$$



USA.gov is the U.S. government's official web portal to all federal, state and local government web resources and services.